Regional Weather Roundup
Issued by NWS

Home | Current Version | Previous Version | Graphics & Text | Print | Product List | Glossary On
Versions: 1 2 3 4 5 6 7 8 9 10 11 12 13 14 15 16 17 18 19 20 21 22 23 24 25 26 27 28 29 30 31 32 33 34 35 36 37 38 39 40 41 42 43 44 45 46 47 48 49 50
000
ASUS43 KLMK 231510
RWRKY
KENTUCKY REGIONAL WEATHER ROUNDUP
NATIONAL WEATHER SERVICE LOUISVILLE KY
1000 AM EST THU FEB 23 2017

NOTE "FAIR" INDICATES FEW OR NO CLOUDS BELOW 12,000 FEET
WITH NO SIGNIFICANT WEATHER AND/OR OBSTRUCTIONS TO VISIBILITY.

KYZ001>023-026-027-061>063-070>075-231600-
WESTERN AND SOUTH CENTRAL KENTUCKY

CITY           SKY/WX    TMP DP  RH WIND       PRES   REMARKS
PADUCAH        PTSUNNY   61  56  83 S8        29.79S
HENDERSON      MOSUNNY   63  55  77 S9        29.79F
OWENSBORO      MOSUNNY   63  58  83 S10       29.82F
HOPKINSVILLE   PTSUNNY   63  59  88 S10       29.84R
BOWLING GREEN  CLOUDY    62  57  83 S9        29.87R
GLASGOW        CLOUDY    60  59  97 S6        29.88R
$$

KYZ024-025-028>034-038-045-046-053-231600-
NORTH CENTRAL KENTUCKY

CITY           SKY/WX    TMP DP  RH WIND       PRES   REMARKS
LOUISVILLE/SDF PTSUNNY   65  56  72 S10       29.83S
LOUISVILLE/LOU CLOUDY    64  57  78 S8        29.83F
FORT KNOX      CLOUDY    63  58  84 S16       29.83S
$$

KYZ035>037-039>044-047>052-055>060-089>105-231600-
NORTHEAST KENTUCKY

CITY           SKY/WX    TMP DP  RH WIND       PRES   REMARKS
LEXINGTON      CLOUDY    59  55  87 S8        29.88R
COVINGTON      MOSUNNY   62  57  83 S17       29.81F
FRANKFORT      CLOUDY    61  55  81 S9        29.85S
$$

KYZ054-064>069-076>088-106>120-231600-
SOUTHEAST KENTUCKY

CITY           SKY/WX    TMP DP  RH WIND       PRES   REMARKS
JACKSON        CLOUDY    56  53  90 CALM      29.90F
LONDON         CLOUDY    53  51  93 CALM      29.91S FOG
SOMERSET       CLOUDY    55  55 100 CALM      29.91S
MIDDLESBORO    CLOUDY    52  52 100 CALM      29.94S
MONTICELLO     CLOUDY    60  56  86 NE8       29.91F
$$




USA.gov is the U.S. government's official web portal to all federal, state and local government web resources and services.